Time,TemperatureF,DewpointF,PressureIn,WindDirection,WindDirectionDegrees,WindSpeedMPH,WindSpeedGustMPH,Humidity,HourlyPrecipIn,Conditions,Clouds,dailyrainin,SoftwareType,DateUTC
2013-02-28 00:01:00,47.0,35.0,30.19,NNW,339,0.0,4.0,64,0.00,,,0.01,,2013-02-28 08:01:00,
2013-02-28 00:21:00,47.0,35.0,30.19,NNW,340,0.0,1.0,64,0.01,,,0.02,,2013-02-28 08:21:00,
2013-02-28 00:31:00,47.0,36.0,30.18,NNW,332,0.0,2.0,65,0.03,,,0.05,,2013-02-28 08:31:00,
2013-02-28 00:41:00,47.0,36.0,30.18,NNW,332,0.0,2.0,65,0.03,,,0.05,,2013-02-28 08:41:00,
2013-02-28 00:52:00,47.0,36.0,30.18,North,358,0.0,1.0,65,0.04,,,0.06,,2013-02-28 08:52:00,
2013-02-28 01:02:00,46.0,35.0,30.16,North,360,0.0,0.0,66,0.05,,,0.07,,2013-02-28 09:02:00,
2013-02-28 01:21:00,46.0,35.0,30.16,NNW,340,0.0,0.0,66,0.00,,,0.08,,2013-02-28 09:21:00,
2013-02-28 01:31:00,47.0,37.0,30.17,North,360,0.0,0.0,67,0.01,,,0.09,,2013-02-28 09:31:00,
2013-02-28 01:41:00,47.0,37.0,30.17,North,360,0.0,0.0,67,0.01,,,0.09,,2013-02-28 09:41:00,
2013-02-28 01:52:00,47.0,37.0,30.17,North,360,0.0,0.0,67,0.02,,,0.10,,2013-02-28 09:52:00,
2013-02-28 02:01:00,47.0,37.0,30.16,North,360,0.0,0.0,67,0.02,,,0.10,,2013-02-28 10:01:00,
2013-02-28 02:11:00,47.0,37.0,30.16,North,360,0.0,0.0,67,0.02,,,0.10,,2013-02-28 10:11:00,
2013-02-28 02:21:00,47.0,37.0,30.16,North,360,0.0,0.0,67,0.02,,,0.10,,2013-02-28 10:21:00,
2013-02-28 02:31:00,47.0,37.0,30.16,SSW,200,0.0,0.0,68,0.01,,,0.11,,2013-02-28 10:31:00,
2013-02-28 02:41:00,47.0,37.0,30.16,SSW,200,0.0,0.0,68,0.01,,,0.11,,2013-02-28 10:41:00,
2013-02-28 02:51:00,47.0,37.0,30.16,NNW,340,0.0,0.0,68,0.01,,,0.11,,2013-02-28 10:51:00,
2013-02-28 03:01:00,47.0,37.0,30.15,West,279,0.0,1.0,68,0.01,,,0.11,,2013-02-28 11:01:00,
2013-02-28 03:11:00,47.0,37.0,30.15,West,279,0.0,1.0,68,0.01,,,0.11,,2013-02-28 11:11:00,
2013-02-28 03:21:00,47.0,37.0,30.15,SSW,200,0.0,0.0,68,0.01,,,0.11,,2013-02-28 11:21:00,
2013-02-28 03:31:00,47.0,37.0,30.15,North,360,0.0,0.0,68,0.01,,,0.12,,2013-02-28 11:31:00,
2013-02-28 03:41:00,47.0,37.0,30.15,North,360,0.0,0.0,68,0.01,,,0.12,,2013-02-28 11:41:00,
2013-02-28 03:52:00,47.0,37.0,30.15,NNW,340,0.0,0.0,68,0.01,,,0.12,,2013-02-28 11:52:00,
2013-02-28 04:01:00,47.0,37.0,30.14,North,360,0.0,0.0,68,0.01,,,0.12,,2013-02-28 12:01:00,
2013-02-28 04:11:00,47.0,37.0,30.14,North,360,0.0,0.0,68,0.01,,,0.12,,2013-02-28 12:11:00,
2013-02-28 04:21:00,47.0,37.0,30.14,North,360,0.0,0.0,68,0.01,,,0.12,,2013-02-28 12:21:00,
2013-02-28 04:31:00,47.0,37.0,30.14,SSW,200,0.0,2.0,68,0.01,,,0.13,,2013-02-28 12:31:00,
2013-02-28 04:42:00,47.0,37.0,30.14,SSW,200,0.0,2.0,68,0.01,,,0.13,,2013-02-28 12:42:00,
2013-02-28 04:52:00,47.0,37.0,30.14,SW,220,0.0,1.0,69,0.02,,,0.14,,2013-02-28 12:52:00,
2013-02-28 05:01:00,47.0,37.0,30.14,SSW,199,0.0,2.0,69,0.03,,,0.15,,2013-02-28 13:01:00,
2013-02-28 05:11:00,47.0,37.0,30.14,SSW,199,0.0,1.0,69,0.04,,,0.16,,2013-02-28 13:11:00,
2013-02-28 05:21:00,47.0,37.0,30.14,SSW,199,0.0,1.0,69,0.04,,,0.16,,2013-02-28 13:21:00,
2013-02-28 05:31:00,47.0,37.0,30.15,SSW,212,1.0,3.0,69,0.01,,,0.17,,2013-02-28 13:31:00,
2013-02-28 05:41:00,47.0,37.0,30.15,SSW,212,1.0,3.0,69,0.01,,,0.17,,2013-02-28 13:41:00,
2013-02-28 05:51:00,48.0,38.0,30.15,SSW,200,0.0,3.0,69,0.01,,,0.17,,2013-02-28 13:51:00,
2013-02-28 06:01:00,48.0,38.0,30.15,SSW,199,0.0,5.0,69,0.03,,,0.19,,2013-02-28 14:01:00,
2013-02-28 06:11:00,48.0,38.0,30.16,SW,230,0.0,3.0,69,0.04,,,0.20,,2013-02-28 14:11:00,
2013-02-28 06:21:00,48.0,38.0,30.16,SW,230,0.0,3.0,69,0.04,,,0.20,,2013-02-28 14:21:00,
2013-02-28 06:31:00,48.0,39.0,30.16,SSW,199,0.0,6.0,70,0.03,,,0.23,,2013-02-28 14:31:00,
2013-02-28 06:41:00,48.0,39.0,30.16,SSW,202,0.0,2.0,70,0.05,,,0.25,,2013-02-28 14:41:00,
2013-02-28 06:52:00,48.0,39.0,30.16,SSW,202,0.0,2.0,70,0.05,,,0.25,,2013-02-28 14:52:00,
2013-02-28 07:01:00,48.0,39.0,30.16,SSW,202,0.0,3.0,70,0.06,,,0.26,,2013-02-28 15:01:00,
2013-02-28 07:11:00,48.0,39.0,30.17,SSW,199,0.0,4.0,70,0.06,,,0.26,,2013-02-28 15:11:00,
2013-02-28 07:21:00,48.0,39.0,30.17,SSW,199,0.0,4.0,70,0.06,,,0.26,,2013-02-28 15:21:00,
2013-02-28 07:31:00,48.0,39.0,30.16,SSW,200,0.0,2.0,70,0.01,,,0.27,,2013-02-28 15:31:00,
2013-02-28 07:41:00,48.0,39.0,30.16,SSW,200,0.0,2.0,70,0.01,,,0.27,,2013-02-28 15:41:00,
2013-02-28 07:51:00,48.0,39.0,30.16,SSW,204,1.0,4.0,70,0.02,,,0.28,,2013-02-28 15:51:00,
2013-02-28 08:01:00,49.0,40.0,30.16,SSW,208,0.0,4.0,70,0.02,,,0.28,,2013-02-28 16:01:00,
2013-02-28 08:11:00,49.0,40.0,30.17,SSW,200,0.0,4.0,70,0.02,,,0.28,,2013-02-28 16:11:00,
2013-02-28 08:21:00,49.0,40.0,30.17,SSW,200,0.0,4.0,70,0.02,,,0.28,,2013-02-28 16:21:00,
2013-02-28 08:31:00,49.0,40.0,30.17,SW,220,0.0,1.0,70,0.01,,,0.29,,2013-02-28 16:31:00,
2013-02-28 08:41:00,49.0,40.0,30.17,SW,220,0.0,1.0,70,0.01,,,0.29,,2013-02-28 16:41:00,
2013-02-28 08:52:00,49.0,40.0,30.17,West,270,0.0,1.0,70,0.02,,,0.30,,2013-02-28 16:52:00,
2013-02-28 09:01:00,50.0,41.0,30.18,SSW,201,1.0,4.0,70,0.03,,,0.31,,2013-02-28 17:01:00,
2013-02-28 09:11:00,49.0,39.0,30.17,SW,220,0.0,2.0,69,0.04,,,0.32,,2013-02-28 17:11:00,
2013-02-28 09:21:00,49.0,39.0,30.17,SW,220,0.0,2.0,69,0.04,,,0.32,,2013-02-28 17:21:00,
2013-02-28 09:32:00,50.0,41.0,30.19,WNW,282,1.0,3.0,70,0.02,,,0.34,,2013-02-28 17:32:00,
2013-02-28 09:41:00,50.0,41.0,30.19,WNW,282,1.0,3.0,70,0.02,,,0.34,,2013-02-28 17:41:00,
2013-02-28 09:52:00,51.0,42.0,30.19,WSW,252,0.0,5.0,70,0.03,,,0.35,,2013-02-28 17:52:00,
2013-02-28 10:01:00,51.0,41.0,30.19,SSW,211,1.0,5.0,69,0.05,,,0.37,,2013-02-28 18:01:00,
2013-02-28 10:11:00,52.0,42.0,30.20,WSW,256,3.0,10.0,69,0.06,,,0.38,,2013-02-28 18:11:00,
2013-02-28 10:21:00,52.0,42.0,30.20,WSW,256,3.0,10.0,69,0.06,,,0.38,,2013-02-28 18:21:00,
2013-02-28 10:31:00,52.0,42.0,30.20,WSW,246,2.0,7.0,69,0.00,,,0.38,,2013-02-28 18:31:00,
2013-02-28 10:41:00,52.0,42.0,30.20,SW,229,4.0,10.0,68,0.00,,,0.38,,2013-02-28 18:41:00,
2013-02-28 10:52:00,52.0,42.0,30.20,SW,229,4.0,10.0,68,0.00,,,0.38,,2013-02-28 18:52:00,
2013-02-28 11:01:00,53.0,43.0,30.20,WSW,238,1.0,9.0,68,0.01,,,0.39,,2013-02-28 19:01:00,
2013-02-28 11:11:00,52.0,42.0,30.21,SW,229,1.0,8.0,68,0.01,,,0.39,,2013-02-28 19:11:00,
2013-02-28 11:21:00,52.0,42.0,30.21,SW,229,1.0,8.0,68,0.01,,,0.39,,2013-02-28 19:21:00,
2013-02-28 11:31:00,52.0,42.0,30.21,WSW,247,1.0,6.0,68,0.02,,,0.41,,2013-02-28 19:31:00,
2013-02-28 11:41:00,52.0,42.0,30.21,WSW,247,1.0,6.0,68,0.02,,,0.41,,2013-02-28 19:41:00,
2013-02-28 11:51:00,53.0,43.0,30.21,WSW,245,1.0,6.0,68,0.03,,,0.42,,2013-02-28 19:51:00,
2013-02-28 12:01:00,53.0,42.0,30.21,WSW,242,1.0,5.0,67,0.04,,,0.43,,2013-02-28 20:01:00,
2013-02-28 12:11:00,53.0,42.0,30.22,WSW,237,2.0,7.0,67,0.04,,,0.43,,2013-02-28 20:11:00,
2013-02-28 12:21:00,53.0,42.0,30.22,WSW,237,2.0,7.0,67,0.04,,,0.43,,2013-02-28 20:21:00,
2013-02-28 12:31:00,53.0,42.0,30.22,WNW,282,1.0,7.0,67,0.02,,,0.45,,2013-02-28 20:31:00,
2013-02-28 12:41:00,53.0,42.0,30.22,WNW,282,1.0,7.0,67,0.02,,,0.45,,2013-02-28 20:41:00,
2013-02-28 12:52:00,54.0,43.0,30.23,SW,232,1.0,4.0,67,0.03,,,0.46,,2013-02-28 20:52:00,
2013-02-28 13:01:00,54.0,43.0,30.23,WSW,257,2.0,4.0,67,0.05,,,0.48,,2013-02-28 21:01:00,
2013-02-28 13:11:00,54.0,43.0,30.23,WSW,257,2.0,4.0,67,0.05,,,0.48,,2013-02-28 21:11:00,
2013-02-28 13:22:00,54.0,43.0,30.23,SSW,205,0.0,4.0,67,0.07,,,0.50,,2013-02-28 21:22:00,
2013-02-28 13:31:00,54.0,43.0,30.22,SSW,210,1.0,5.0,67,0.00,,,0.50,,2013-02-28 21:31:00,
2013-02-28 13:41:00,54.0,43.0,30.22,SSW,210,1.0,5.0,67,0.00,,,0.50,,2013-02-28 21:41:00,
2013-02-28 13:51:00,55.0,44.0,30.22,WSW,253,1.0,6.0,67,0.00,,,0.50,,2013-02-28 21:51:00,
2013-02-28 14:01:00,54.0,43.0,30.22,SW,222,1.0,9.0,67,0.00,,,0.50,,2013-02-28 22:01:00,
2013-02-28 14:11:00,54.0,43.0,30.22,West,272,3.0,8.0,67,0.00,,,0.50,,2013-02-28 22:11:00,
2013-02-28 14:21:00,54.0,43.0,30.22,West,272,3.0,8.0,67,0.00,,,0.50,,2013-02-28 22:21:00,
2013-02-28 14:31:00,55.0,44.0,30.22,SW,217,1.0,8.0,67,0.00,,,0.50,,2013-02-28 22:31:00,
2013-02-28 14:41:00,55.0,44.0,30.22,SW,217,1.0,8.0,67,0.00,,,0.50,,2013-02-28 22:41:00,
2013-02-28 14:52:00,55.0,44.0,30.22,WSW,253,3.0,9.0,66,0.00,,,0.50,,2013-02-28 22:52:00,
2013-02-28 15:01:00,55.0,44.0,30.23,WSW,240,0.0,8.0,66,0.00,,,0.50,,2013-02-28 23:01:00,
2013-02-28 15:11:00,55.0,44.0,30.23,SW,217,1.0,8.0,66,0.00,,,0.50,,2013-02-28 23:11:00,
2013-02-28 15:21:00,55.0,44.0,30.23,SW,217,1.0,8.0,66,0.00,,,0.50,,2013-02-28 23:21:00,
2013-02-28 15:31:00,55.0,44.0,30.23,SW,233,2.0,10.0,66,0.00,,,0.50,,2013-02-28 23:31:00,
2013-02-28 15:41:00,55.0,44.0,30.23,SW,233,2.0,10.0,66,0.00,,,0.50,,2013-02-28 23:41:00,
2013-02-28 15:52:00,54.0,43.0,30.24,West,259,1.0,5.0,67,0.01,,,0.51,,2013-02-28 23:52:00,
2013-02-28 16:01:00,54.0,43.0,30.25,SSW,211,1.0,5.0,67,0.03,,,0.53,,2013-03-01 00:01:00,
2013-02-28 16:11:00,54.0,44.0,30.26,North,356,0.0,4.0,68,0.08,,,0.58,,2013-03-01 00:11:00,
2013-02-28 16:22:00,54.0,44.0,30.26,North,356,0.0,4.0,68,0.08,,,0.58,,2013-03-01 00:22:00,
2013-02-28 16:32:00,54.0,44.0,30.26,North,360,0.0,4.0,68,0.04,,,0.62,,2013-03-01 00:32:00,
2013-02-28 16:41:00,54.0,44.0,30.26,North,360,0.0,4.0,68,0.04,,,0.62,,2013-03-01 00:41:00,
2013-02-28 16:51:00,54.0,44.0,30.26,WSW,247,0.0,1.0,69,0.05,,,0.63,,2013-03-01 00:51:00,
2013-02-28 17:01:00,54.0,44.0,30.27,NNW,340,0.0,1.0,69,0.11,,,0.69,,2013-03-01 01:01:00,
2013-02-28 17:11:00,53.0,44.0,30.27,North,355,1.0,3.0,71,0.13,,,0.71,,2013-03-01 01:11:00,
2013-02-28 17:21:00,53.0,44.0,30.27,North,355,1.0,3.0,71,0.13,,,0.71,,2013-03-01 01:21:00,
2013-02-28 17:31:00,53.0,44.0,30.27,North,349,0.0,2.0,71,0.07,,,0.78,,2013-03-01 01:31:00,
2013-02-28 17:41:00,53.0,44.0,30.27,North,349,0.0,2.0,71,0.07,,,0.78,,2013-03-01 01:41:00,
2013-02-28 17:51:00,53.0,43.0,30.27,NNW,341,3.0,4.0,70,0.07,,,0.78,,2013-03-01 01:51:00,
2013-02-28 18:01:00,53.0,43.0,30.27,West,277,0.0,2.0,70,0.08,,,0.79,,2013-03-01 02:01:00,
2013-02-28 18:11:00,52.0,43.0,30.27,SW,230,0.0,2.0,71,0.08,,,0.79,,2013-03-01 02:11:00,
2013-02-28 18:21:00,52.0,43.0,30.27,SW,230,0.0,2.0,71,0.08,,,0.79,,2013-03-01 02:21:00,
2013-02-28 18:31:00,52.0,43.0,30.28,North,360,0.0,1.0,71,0.00,,,0.79,,2013-03-01 02:31:00,
2013-02-28 18:52:00,52.0,43.0,30.28,North,360,0.0,1.0,71,0.00,,,0.79,,2013-03-01 02:52:00,
2013-02-28 19:01:00,52.0,43.0,30.28,NNW,339,0.0,1.0,71,0.00,,,0.79,,2013-03-01 03:01:00,
2013-02-28 19:11:00,52.0,43.0,30.29,NNW,346,1.0,2.0,72,0.00,,,0.79,,2013-03-01 03:11:00,
2013-02-28 19:21:00,52.0,43.0,30.29,NNW,346,1.0,2.0,72,0.00,,,0.79,,2013-03-01 03:21:00,
2013-02-28 19:32:00,52.0,43.0,30.30,SW,219,0.0,1.0,72,0.00,,,0.79,,2013-03-01 03:32:00,
2013-02-28 19:41:00,52.0,43.0,30.30,SW,219,0.0,1.0,72,0.00,,,0.79,,2013-03-01 03:41:00,
2013-02-28 19:51:00,52.0,43.0,30.30,NNW,340,0.0,1.0,72,0.00,,,0.79,,2013-03-01 03:51:00,
2013-02-28 20:01:00,52.0,43.0,30.30,North,360,0.0,3.0,72,0.00,,,0.79,,2013-03-01 04:01:00,
2013-02-28 20:11:00,52.0,43.0,30.30,WNW,302,1.0,2.0,72,0.00,,,0.79,,2013-03-01 04:11:00,
2013-02-28 20:21:00,52.0,43.0,30.30,WNW,302,1.0,2.0,72,0.00,,,0.79,,2013-03-01 04:21:00,
2013-02-28 20:31:00,51.0,42.0,30.30,SSW,200,0.0,1.0,71,0.00,,,0.79,,2013-03-01 04:31:00,
2013-02-28 20:51:00,51.0,42.0,30.30,SW,230,0.0,0.0,71,0.00,,,0.79,,2013-03-01 04:51:00,
2013-02-28 21:01:00,51.0,42.0,30.29,NNW,328,1.0,2.0,70,0.00,,,0.79,,2013-03-01 05:01:00,
2013-02-28 21:22:00,51.0,42.0,30.30,SW,215,0.0,2.0,70,0.00,,,0.79,,2013-03-01 05:22:00,
2013-02-28 21:32:00,51.0,42.0,30.30,WNW,282,1.0,6.0,71,0.00,,,0.79,,2013-03-01 05:32:00,
2013-02-28 21:41:00,51.0,42.0,30.30,WNW,282,1.0,6.0,71,0.00,,,0.79,,2013-03-01 05:41:00,
2013-02-28 21:52:00,50.0,41.0,30.30,NW,320,1.0,2.0,70,0.00,,,0.79,,2013-03-01 05:52:00,
2013-02-28 22:01:00,51.0,42.0,30.32,SW,219,0.0,1.0,71,0.00,,,0.79,,2013-03-01 06:01:00,
2013-02-28 22:11:00,51.0,42.0,30.32,SSW,200,0.0,2.0,71,0.00,,,0.79,,2013-03-01 06:11:00,
2013-02-28 22:21:00,51.0,42.0,30.32,SSW,200,0.0,2.0,71,0.00,,,0.79,,2013-03-01 06:21:00,
2013-02-28 22:31:00,51.0,42.0,30.32,North,360,0.0,2.0,70,0.00,,,0.79,,2013-03-01 06:31:00,
2013-02-28 22:41:00,51.0,42.0,30.32,North,360,0.0,2.0,70,0.00,,,0.79,,2013-03-01 06:41:00,
2013-02-28 22:52:00,51.0,42.0,30.33,SSW,200,0.0,4.0,71,0.00,,,0.79,,2013-03-01 06:52:00,
2013-02-28 23:01:00,51.0,42.0,30.33,West,267,0.0,3.0,71,0.00,,,0.78,,2013-03-01 07:01:00,
2013-02-28 23:11:00,51.0,42.0,30.33,West,267,0.0,3.0,71,0.00,,,0.78,,2013-03-01 07:11:00,
2013-02-28 23:21:00,51.0,42.0,30.33,SW,221,2.0,6.0,71,0.00,,,0.78,,2013-03-01 07:21:00,
2013-02-28 23:32:00,51.0,42.0,30.33,SW,217,1.0,7.0,71,0.00,,,0.78,,2013-03-01 07:32:00,
2013-02-28 23:41:00,51.0,42.0,30.33,SW,217,1.0,7.0,71,0.00,,,0.78,,2013-03-01 07:41:00,
2013-02-28 23:51:00,51.0,42.0,30.33,SW,228,1.0,7.0,71,0.00,,,0.78,,2013-03-01 07:51:00,